Probability
8 8 9 7 4 4 6 6 5 4 3 3 3 3 3 3 3 3 3 3 3 3 3 3 3 3 3 2 2 1 1 1 0 0 1 1 1 0 0 0 0 0 0
8 9 9 8 5 4 6 6 5 4 3 3 3 3 3 3 3 3 3 3 3 3 3 3 2 2 2 1 1 0 0 0 0 0 0 0 0 0 0 0 0 0 0
9 9 10 9 6 5 5 5 4 3 3 3 3 3 3 3 3 3 3 3 2 2 2 2 2 1 1 0 0 0 0 0 0 0 0 0 0 0 0 0 0 0 0
8 9 10 10 8 5 5 4 3 3 3 3 3 3 3 3 3 3 3 3 2 1 1 1 1 0 0 0 0 0 0 0 0 0 0 0 0 0 0 0 0 0 0
5 7 9 10 9 7 5 4 3 3 3 3 3 3 3 3 3 3 3 3 2 1 0 0 0 0 0 0 0 0 0 0 0 0 0 0 0 0 0 0 0 0 0
4 4 6 7 7 6 4 3 3 3 3 3 3 3 3 3 2 1 1 2 2 1 0 0 0 0 0 0 0 0 0 0 0 0 0 0 0 0 0 0 0 0 0
3 3 3 4 4 3 2 1 1 2 3 3 3 3 3 3 1 0 0 1 2 2 1 0 0 0 0 0 1 1 1 1 0 0 0 0 0 1 0 0 0 0 0
3 3 3 2 2 2 1 0 0 1 1 2 3 3 3 2 1 0 0 0 1 2 1 1 0 0 0 0 1 2 2 1 0 0 0 0 0 0 0 0 0 0 0
3 3 1 1 1 2 3 2 1 1 0 1 1 3 4 3 1 0 0 0 1 1 1 1 0 0 0 0 1 1 1 1 0 0 0 0 0 0 0 0 0 0 0
3 3 1 1 1 3 5 5 3 2 1 0 1 2 4 3 1 0 0 0 1 1 1 1 0 0 0 0 0 0 0 0 0 0 0 0 0 0 1 1 0 0 0
3 3 3 2 3 4 6 6 4 3 1 1 1 2 3 2 1 0 0 0 0 0 0 0 0 0 0 0 0 0 0 0 0 0 0 0 0 0 1 1 0 0 1
2 2 3 3 3 4 6 5 4 3 3 2 1 1 2 2 0 0 0 0 0 0 0 0 0 0 0 0 0 0 0 0 0 0 0 0 0 0 1 1 0 1 2
2 2 3 3 4 5 5 5 4 4 3 1 1 1 1 1 0 0 0 0 0 0 0 0 0 0 0 0 0 0 0 0 0 0 0 0 0 0 1 0 0 0 1
3 2 2 2 3 5 5 4 4 3 2 0 0 0 0 0 0 0 0 0 0 0 0 0 0 0 0 0 0 0 0 0 0 0 0 0 0 0 0 0 0 0 0
3 2 1 1 2 4 5 4 3 3 1 0 0 0 0 0 0 0 0 0 0 0 0 0 0 0 0 0 0 0 0 0 0 0 0 0 0 0 0 0 1 0 0
3 2 1 0 0 2 2 2 1 1 0 0 0 0 0 0 0 0 0 0 0 0 0 0 0 0 0 0 0 0 0 0 0 0 0 0 0 0 0 0 0 0 0
3 2 1 0 0 0 0 0 0 0 0 0 0 0 0 0 0 0 0 0 0 0 0 0 0 0 0 0 0 0 0 0 0 0 0 0 0 0 0 0 0 0 0
3 2 1 0 0 0 0 0 0 0 0 0 0 0 0 0 0 0 0 0 0 0 0 0 0 0 0 0 0 0 0 0 0 0 0 0 0 0 0 0 0 0 0
3 2 1 0 0 0 0 0 0 0 0 0 0 0 0 0 0 0 0 0 0 0 0 0 0 0 0 0 0 0 0 0 0 0 0 0 0 0 0 0 0 0 0
3 2 1 0 0 0 0 0 0 0 0 0 0 0 0 0 0 0 0 0 0 0 0 0 0 0 0 0 0 0 0 0 0 0 0 0 0 0 0 0 0 0 0
2 1 0 0 0 0 0 0 0 0 0 0 0 0 0 0 0 0 0 0 0 0 0 0 0 0 0 0 0 0 0 0 0 0 0 0 0 0 0 0 0 0 0
1 0 0 0 0 0 0 0 0 0 0 0 0 0 0 0 0 0 0 0 0 0 0 0 0 0 0 0 0 0 0 0 0 0 0 0 0 0 0 0 0 0 0
0 0 0 0 0 0 0 0 0 0 0 0 0 0 0 0 0 0 0 0 0 0 0 0 0 0 0 0 0 0 0 0 0 0 0 0 0 0 0 0 0 0 0
0 0 0 0 0 0 0 0 0 0 0 0 0 0 0 0 0 0 0 0 0 0 0 0 0 0 0 0 0 0 0 0 0 0 0 0 0 0 0 0 0 0 0
0 0 0 0 0 0 0 0 0 0 0 0 0 0 0 0 0 0 0 0 0 0 0 0 0 0 0 0 0 0 0 0 0 0 0 0 0 0 0 0 0 0 0
0 0 0 0 0 0 0 0 0 0 0 0 0 0 0 0 1 1 1 0 0 0 0 0 0 0 0 0 0 0 0 0 0 0 0 0 0 0 0 0 0 0 0
Wind_Speed
1 1 1 1 1 1 1 1 1 1 2 2 2 2 2 2 2 2 3 3 3 3 3 3 3 3 3 3 2 3 3 3 4 4 3 2 3 3 2 2 3 3 4
1 1 1 1 1 1 1 1 1 1 2 2 2 2 2 2 2 3 4 4 4 4 4 3 4 4 4 3 3 3 3 3 3 4 3 3 3 3 3 3 3 3 3
1 1 0 1 1 1 1 1 1 2 2 2 2 2 2 2 2 3 3 4 4 4 4 3 3 4 4 3 4 4 4 4 3 3 4 3 3 3 2 3 3 2 3
0 0 1 2 2 2 1 1 1 1 2 2 2 2 2 2 3 3 4 5 5 5 4 4 3 3 3 4 4 4 4 4 3 3 4 3 3 3 2 1 2 2 2
1 1 1 2 2 1 1 1 1 2 2 1 1 2 2 2 3 4 5 6 5 6 5 4 4 4 4 4 4 4 5 4 4 3 4 3 3 2 2 2 2 2 3
2 3 2 1 2 2 1 0 0 1 1 1 2 2 3 3 3 4 4 5 5 6 6 5 5 4 4 5 7 7 6 5 5 4 4 4 4 3 2 2 2 2 3
2 3 1 1 2 2 1 1 1 1 1 1 2 2 2 2 3 4 6 5 6 5 5 5 6 5 5 5 6 7 7 7 7 5 5 5 5 4 3 3 3 3 3
2 2 1 2 2 1 0 1 1 1 1 2 2 2 2 3 3 4 7 5 5 5 5 5 4 4 5 6 6 6 5 4 5 5 5 6 6 4 3 4 4 4 4
2 2 2 2 2 1 1 1 1 1 2 3 3 3 3 2 2 4 5 4 4 6 5 4 4 4 5 6 6 6 6 5 6 5 6 7 8 8 5 3 4 4 4
2 1 1 2 2 1 1 2 2 2 3 3 3 2 2 2 2 3 3 4 4 5 4 3 3 3 5 5 4 5 6 6 6 6 6 7 6 7 7 6 5 4 4
1 1 0 1 2 2 1 2 3 3 2 2 3 3 2 2 3 3 2 3 4 5 5 4 3 4 6 6 5 5 7 7 6 6 5 5 4 3 4 4 5 4 4
1 1 1 1 2 1 1 2 2 2 2 2 2 2 2 1 1 1 3 4 5 5 5 5 5 8 9 9 6 7 9 7 5 4 4 4 4 3 3 3 4 4 5
1 1 1 1 1 2 2 2 2 2 2 2 1 1 1 1 1 1 3 6 6 4 5 8 9 10 9 7 7 7 6 4 4 3 4 4 4 4 4 3 3 3 4
1 1 1 1 2 2 2 2 1 1 1 1 2 2 2 2 3 3 3 4 5 5 5 8 9 8 6 6 6 4 3 3 3 3 4 4 4 3 4 4 3 3 3
2 2 2 2 2 2 2 1 1 1 1 1 2 2 3 3 2 3 3 4 5 5 6 5 4 3 3 3 3 3 3 3 4 4 4 4 4 3 3 4 3 3 3
1 2 2 2 2 2 2 1 1 1 1 1 1 1 2 1 3 5 7 8 8 7 4 4 4 4 4 4 4 4 4 4 4 4 4 4 5 5 4 4 4 3 3
2 2 3 2 2 2 2 2 1 1 2 3 3 3 3 4 5 7 8 9 9 4 2 3 3 3 4 4 4 4 4 4 4 5 5 5 5 5 5 5 4 4 4
3 3 3 2 2 2 2 2 2 2 2 1 3 6 5 5 7 7 6 6 4 2 2 3 3 4 4 4 5 4 4 4 4 5 5 5 5 5 6 6 5 5 5
3 2 2 2 3 2 2 2 2 1 1 1 1 1 4 6 6 6 4 3 4 4 4 4 4 4 4 4 4 5 5 5 5 5 5 6 6 6 5 5 5 7 6
3 4 3 3 3 2 2 2 2 1 1 1 1 1 0 1 1 1 1 2 3 3 4 4 4 5 5 5 5 5 6 6 7 7 6 6 6 6 7 7 6 6 5
3 3 4 3 3 2 2 2 2 2 2 2 2 2 1 1 2 2 2 2 3 3 3 4 4 5 5 5 5 6 7 7 7 7 7 7 7 6 6 6 6 6 6
3 3 3 3 2 1 2 2 2 2 1 2 1 2 1 1 2 3 4 3 3 3 4 4 4 5 5 6 6 6 7 7 7 7 8 8 7 7 7 6 7 6 6
3 3 2 2 2 1 2 2 2 1 1 2 2 3 2 2 2 3 4 4 4 4 4 4 4 6 6 5 6 6 7 7 7 8 8 8 8 7 7 7 8 7 7
3 3 3 2 1 1 2 2 1 1 2 2 2 3 2 2 3 4 3 3 3 3 4 4 5 7 9 7 6 6 7 7 8 7 9 8 8 7 7 7 8 9 7
4 3 3 2 2 2 2 1 1 1 2 2 2 2 2 2 3 3 3 3 4 4 5 5 5 6 9 10 9 8 7 8 7 8 8 7 8 8 7 8 7 8 7
4 3 3 2 2 2 2 1 1 1 2 2 2 2 2 3 3 4 3 3 3 3 4 4 7 9 10 9 9 8 7 9 9 10 8 6 7 7 7 6 8 8 8
Wind_Direction
139 172 171 187 244 249 243 294 287 308 299 298 312 306 305 309 320 312 305 307 309 312 311 319 316 305 315 309 299 288 283 281 286 293 292 294 274 265 257 242 238 224 218
165 155 209 226 257 260 266 288 302 297 298 313 313 305 307 326 329 315 313 321 315 315 315 314 316 321 326 316 316 305 298 289 287 294 293 289 279 269 252 247 253 248 230
176 135 273 264 273 264 264 288 289 287 289 291 297 299 314 330 327 326 329 324 319 316 310 308 312 317 317 319 317 316 309 305 297 290 288 277 267 263 261 258 256 257 261
174 195 270 264 250 240 246 249 254 270 274 286 302 314 328 345 348 349 339 324 320 318 314 308 301 302 304 312 308 308 309 308 299 292 282 281 276 269 261 259 276 266 265
281 262 265 277 254 231 241 232 239 274 290 305 319 321 325 333 2 356 330 322 320 314 312 312 306 299 293 289 297 303 306 300 298 294 290 289 284 280 274 274 273 272 266
271 277 276 268 276 255 250 222 307 291 316 322 318 323 329 334 343 335 324 315 308 306 310 309 299 284 294 279 273 278 276 280 293 294 293 289 289 288 285 286 288 285 283
272 283 296 289 284 277 306 36 322 319 318 299 297 302 305 306 311 315 314 302 299 300 301 301 308 320 317 306 290 283 275 260 247 256 279 283 282 281 283 285 279 277 274
266 282 295 304 300 293 294 285 277 293 287 283 277 277 280 299 298 308 310 290 292 295 295 295 298 306 315 310 303 300 290 288 269 249 254 270 278 282 275 269 265 272 267
248 261 278 303 313 297 284 285 273 262 270 272 273 272 277 289 283 296 308 301 300 303 306 312 311 312 317 317 310 304 302 304 304 302 279 277 281 276 270 277 275 272 273
245 248 283 303 297 278 269 269 269 261 260 264 271 276 278 278 267 276 299 298 309 315 313 308 314 326 323 329 315 310 306 307 318 320 310 294 279 266 249 234 246 258 266
252 255 315 299 261 250 253 263 264 258 265 270 279 277 268 259 256 263 284 304 314 317 319 321 327 333 327 319 308 291 288 300 307 300 297 297 290 274 254 239 232 235 251
280 278 278 252 265 272 265 272 273 263 263 260 266 278 278 268 52 318 299 291 301 309 311 325 334 326 320 313 306 294 299 304 290 292 299 300 300 297 286 271 249 236 237
250 260 245 246 245 250 246 259 263 260 267 288 289 300 312 353 73 357 313 309 306 298 309 318 317 310 309 307 303 307 308 299 298 302 306 304 303 305 309 303 294 268 258
210 198 228 249 248 257 262 257 261 282 292 318 335 350 352 7 29 16 344 328 325 321 320 315 310 309 309 308 311 315 306 317 322 317 315 311 317 324 320 311 301 293 283
202 209 236 244 238 246 255 289 289 330 298 304 339 348 354 355 0 342 326 326 331 335 326 308 309 326 334 337 341 340 337 340 335 326 319 319 318 317 315 315 308 308 294
212 231 246 243 239 234 223 234 256 219 252 274 285 309 338 335 330 329 321 316 310 314 317 307 326 340 346 347 349 351 352 348 340 332 330 330 329 328 323 318 313 310 313
231 240 252 252 242 237 238 224 211 223 242 251 251 252 257 290 304 302 309 319 313 312 309 315 336 349 351 353 354 355 348 343 342 337 336 335 333 330 324 322 323 322 315
240 242 248 250 263 264 259 250 229 204 190 213 229 234 249 265 276 287 307 327 324 334 319 334 350 0 2 355 354 350 344 343 345 339 337 337 336 333 331 332 333 330 323
246 253 247 257 265 251 251 267 281 270 214 170 141 189 232 254 266 276 287 298 325 346 356 360 2 4 2 355 354 351 344 344 347 343 345 345 338 332 332 331 329 329 326
231 242 248 264 271 265 276 295 312 328 358 76 91 52 92 262 294 309 270 314 341 358 9 7 3 3 1 359 359 355 352 355 356 352 350 346 340 337 334 335 336 332 333
225 209 206 242 268 291 311 315 327 336 356 32 47 53 39 335 348 357 15 22 19 15 20 13 5 11 7 4 4 357 357 3 1 353 347 342 335 334 332 335 338 336 336
240 227 202 213 236 273 297 304 312 322 351 19 38 63 94 356 16 22 25 22 23 25 21 16 11 21 19 7 2 2 8 7 357 349 342 337 334 334 337 339 337 336 339
244 243 215 204 222 217 266 285 298 314 345 27 44 50 43 31 29 35 33 37 35 35 26 24 22 23 18 16 21 26 17 1 345 336 334 331 330 333 338 338 336 340 343
237 247 242 216 215 240 261 274 307 341 26 48 52 51 45 40 40 46 43 46 34 32 30 35 36 29 27 32 28 29 20 357 339 331 329 323 324 331 338 339 338 342 342
234 236 235 230 239 249 264 274 325 20 48 52 57 50 41 43 51 53 50 43 37 39 31 34 37 36 35 40 32 23 5 350 344 335 323 319 322 328 337 340 339 338 342
238 227 222 226 240 253 257 287 348 61 74 60 59 57 44 47 55 55 48 42 32 39 39 40 42 48 43 36 31 22 2 349 343 335 319 311 318 333 341 335 338 340 346